Погода в Мындагае

Россия / Республика Саха (Якутия)     61°38′39″N   133°12′23″E
темп.,
°C
ветер,
м/с
пор.,
м/с
влажн.,
%
обл.,
%
осадки,
мм/ч
давл.,
гПа
погр.,
м
3 марта, ср
ср300:00−30з1198100 0.1 102319
03:00−30з1198100 0.1 102319
06:00−30з1198100 0.1 102219
09:00−29зюз1295100 0.1 1021202
12:00−26з1286100 0.1 1020655
15:00−26зсз2389100 0.1 1018700
18:00−27зсз1297100 0.1 101821
21:00−28зсз1398100 0.1 1018106
4 марта, чт
чт400:00−29з2498100 0.1 1017119
03:00−30з2498100 0.2 1017165
06:00−31з2698100 0.1 1016255
09:00−31зсз3593100 0.2 1016604
12:00−30зсз3588100 0.1 1017837
15:00−29зсз3587100 0.2 1018937
18:00−31зсз2595100 0.1 1019136
21:00−34зсз269799 0.1 1021131
5 марта, пт
пт500:00−38зсз249837 0.0 102273
03:00−40з249837 0.0 102475
06:00−40з269796 0.0 1025140
09:00−38зсз379389 0.0 1026322
12:00−34зсз369296 0.0 1026440
15:00−31зсз369198 0.0 1026527
18:00−34зсз2396100 0.0 102765
21:00−35зсз259897 0.0 1027107
6 марта, сб
сб600:00−36з249847 0.0 102663
03:00−37з249772 0.0 102679
06:00−36з2696100 0.0 1026235
09:00−34зсз2594100 0.0 1026322
12:00−31зсз2388100 0.0 1025426
15:00−28зсз1286100 0.0 1025550
18:00−31зсз1196100 0.0 102519
21:00−34з119872 0.0 102519
7 марта, вс
вс700:00−35з119864 0.0 102519
03:00−36юз119949 0.0 102519
06:00−37юз11992 0.0 102519
09:00−32юз01951 0.0 1025115
12:00−26зсз018884 0.0 1024411
15:00−25ссв018692 0.0 1023525
18:00−30всв1197100 0.0 102319
21:00−32вюв119899 0.0 102419